Bloomington, IL

9:21 AM CDT on September 30, 2016 (GMT -0500)
Central Ill Regional

Weather History for KBMI - June, 2013

Change the Weather History Date:

Thursday, June 27, 2013

  Actual Average Record
Temperature  
Mean Temperature 80 °F -  
Max Temperature 90 °F 91 °F 93 °F (1998)
Min Temperature 71 °F 72 °F 50 °F (2000)
Cooling Degree Days 16    
Growing Degree Days 30 (Base 50)    
Moisture  
Dew Point 70 °F    
Average Humidity 77    
Maximum Humidity 100    
Minimum Humidity 46    
Precipitation  
Precipitation 0.00 in - - ()
Sea Level Pressure  
Sea Level Pressure 29.79 in    
Wind  
Wind Speed 7 mph (WNW)    
Max Wind Speed 22 mph    
Max Gust Speed 28 mph    
Visibility 8 miles    
Events      
Averages and records for this station are not official NWS values.
T = Trace of Precipitation, MM = Missing Value Source: NWS Daily Summary

Daily Weather History Graph

Daily Weather History Graph

Search for Another Location

Airport or City:

Trip Planner

Search our weather history database for the weather conditions in past years. The results will help you decide how hot, cold, wet, or windy it might be!

Date:

Astronomy

Jun. 27, 2013 Rise Set
Actual Time 5:27 AM CDT 8:30 PM CDT
Civil Twilight 4:54 AM CDT 9:03 PM CDT
Nautical Twilight 4:11 AM CDT 9:45 PM CDT
Astronomical Twilight 3:22 AM CDT 10:34 PM CDT
Moon 11:26 PM CDT (6/27) 10:29 AM CDT (6/27)
Length of Visible Light 16h 09m
Length of Day
15h 02m
Waning Gibbous, 76% of the Moon is Illuminated
Jun 27
Waning Gibbous
Jun 29
Last Quarter
Jul 8
New
Jul 15
First Quarter
Jul 22
Full

Hourly Weather History & Observations

Time (CDT) Temp. Heat Index Dew Point Humidity Pressure Visibility Wind Dir Wind Speed Gust Speed Precip Events Conditions
12:56 AM 75.9 °F - 73.9 °F 94% 29.77 in 8.0 mi Calm Calm - N/A   Partly Cloudy
1:56 AM 74.8 °F - 73.9 °F 97% 29.76 in 9.0 mi WNW 4.6 mph - N/A   Partly Cloudy
2:56 AM 73.9 °F - 72.9 °F 96% 29.76 in 9.0 mi West 4.6 mph - N/A   Scattered Clouds
3:56 AM 72.9 °F - 72.0 °F 97% 29.77 in 9.0 mi West 5.8 mph - N/A   Clear
4:56 AM 72.9 °F - 70.9 °F 93% 29.78 in 10.0 mi WSW 3.5 mph - N/A   Partly Cloudy
5:13 AM 73.4 °F - 71.6 °F 94% 29.83 in 10.0 mi Calm Calm - N/A   Mostly Cloudy
5:45 AM 71.6 °F - 71.6 °F 100% 29.83 in 8.0 mi West 3.5 mph - N/A   Scattered Clouds
5:56 AM 72.9 °F - 72.0 °F 97% 29.79 in 5.0 mi West 4.6 mph - N/A   Mostly Cloudy
6:04 AM 73.4 °F - 73.4 °F 100% 29.83 in 2.5 mi West 5.8 mph - N/A   Mostly Cloudy
6:33 AM 75.2 °F - 73.4 °F 94% 29.83 in 1.2 mi WNW 8.1 mph - N/A   Overcast
6:56 AM 74.8 °F - 73.9 °F 97% 29.79 in 1.2 mi WNW 9.2 mph - N/A   Overcast
7:33 AM 75.2 °F - 73.4 °F 94% 29.83 in 3.0 mi WNW 11.5 mph - N/A   Mostly Cloudy
7:56 AM 77.0 °F - 73.9 °F 90% 29.79 in 5.0 mi NW 10.4 mph - N/A   Mostly Cloudy
8:20 AM 78.8 °F - 73.4 °F 83% 29.84 in 7.0 mi NW 11.5 mph - N/A   Partly Cloudy
8:56 AM 79.9 °F - 72.9 °F 79% 29.80 in 10.0 mi NW 12.7 mph - N/A   Partly Cloudy
9:56 AM 83.8 °F 89.2 °F 72.0 °F 67% 29.81 in 10.0 mi NW 16.1 mph - N/A   Clear
10:56 AM 84.9 °F 90.7 °F 72.0 °F 65% 29.81 in 10.0 mi WNW 15.0 mph - N/A   Partly Cloudy
11:56 AM 86.9 °F 91.7 °F 70.0 °F 57% 29.81 in 10.0 mi WNW 17.3 mph - 0.00 in   Clear
12:56 PM 88.0 °F 90.7 °F 66.9 °F 49% 29.82 in 10.0 mi WNW 17.3 mph 24.2 mph N/A   Clear
1:56 PM 90.0 °F 92.8 °F 66.9 °F 46% 29.82 in 10.0 mi WNW 21.9 mph 27.6 mph N/A   Clear
2:56 PM 86.9 °F 90.3 °F 68.0 °F 53% 29.81 in 10.0 mi West 10.4 mph - N/A   Clear
3:56 PM 86.9 °F 90.3 °F 68.0 °F 53% 29.81 in 10.0 mi West 16.1 mph - N/A   Clear
4:56 PM 86.0 °F 88.2 °F 65.8 °F 51% 29.78 in 10.0 mi West 16.1 mph 24.2 mph N/A   Clear
5:56 PM 86.0 °F 89.4 °F 68.0 °F 55% 29.75 in 10.0 mi West 11.5 mph 20.7 mph N/A   Clear
6:56 PM 83.8 °F 86.5 °F 66.9 °F 57% 29.74 in 10.0 mi West 11.5 mph - N/A   Clear
7:56 PM 81.9 °F 84.2 °F 66.9 °F 60% 29.73 in 10.0 mi WNW 15.0 mph - N/A   Clear
8:56 PM 79.9 °F - 64.9 °F 60% 29.73 in 10.0 mi NW 12.7 mph - N/A   Clear
9:56 PM 77.9 °F - 65.8 °F 66% 29.75 in 10.0 mi WNW 12.7 mph - N/A   Clear
10:56 PM 74.8 °F - 66.9 °F 76% 29.76 in 10.0 mi West 8.1 mph - N/A   Clear
11:56 PM 73.9 °F - 66.9 °F 79% 29.78 in 10.0 mi West 9.2 mph - N/A   Clear